Location: Kings Park
(40.8862°N, 73.2573°W)
Time: 09:47:44
(UTC+00:00)

H-2A R/B - Pass Details

Date: 29 October 2020
Orbit: 733 x 837 km, 98.2° (Epoch: 23 November)

Event Time Altitude Azimuth Distance (km) Brightness Sun altitude
Exits shadow 22:58:23 - 132° (SE) 2,958 4.7 -13.1°
Reaches altitude 10° 22:59:53 10° 125° (SE) 2,433 4.2 -13.3°
Maximum altitude 23:04:30 30° 67° (ENE) 1,473 2.9 -14.2°
Drops below altitude 10° 23:09:10 10° 8° (N) 2,458 4.5 -15.1°
Sets 23:11:47 0° 358° (N) 3,394 5.3 -15.6°
